SERVIS 1

导读

SERVIS-1是日本于2003年10月30日08:00发射的一颗新型技术试验卫星,由日本宇宙航空研究开发机构(JAXA)主导,是“太空创新增长倡议”SERVIS计划首星。 该卫星主要用于验证空间用商用电子元器件的空间适应性与长期可靠性,测试新型航天总线技术,降低未来航天任务的开发成本。其成功发射推动了日本商业航天元器件技术的空间验证进程,为后续航天器研发积累了关键数据。

基本信息
目录编号:
28060
目录名称:
SERVIS 1
国际标识:
2003-050A
轨道中心:
EARTH
卫星名称:
SERVIS 1
卫星全名:
--
卫星状态:
在轨 (已飞行8354 天)
发射日期:
2003-10-30 UTC
国别 :
日本 (JP)
星等 :
--
该卫星已列入 空间交会检测服务 Space Conjunction Data Service (SCDS) ,当前飞行风险评估等级: 无高风险
轨道信息
数据来源 国际轨道数据
星历时间: 2026-09-13T08:05:46+0800
6小时前
查看轨道信息
半长轴: 7369.847km
偏心率: 0.0020908
轨道倾角: 99.513°
近地点辐角 216.426°
升交点赤经 254.014°
平近点角 164.041°
近地点: 976.301km
远地点: 1007.119km
周期: 104.942分钟
每日圈数: 13.721928
详细信息
使用方式:
暂无
2D轨道图
3D轨道图
轨道高度分析图
轨道倾角分析图
轨道综合分析图
查看轨道综合分析图
与全量物体交会距离演化趋势
与全量物体交会风险概率演化趋势